Location: *
(48.7358°N, 0.3111°E)
Time: 01:21:59
(UTC+00:00)

Cosmos 1606 Rocket - Pass Details

Date: 22 October 2019
Orbit: 602 x 633 km, 82.5° (Epoch: 18 November)

Event Time Altitude Azimuth Distance (km) Brightness Sun altitude
Rises 04:49:46 0° 343° (NNW) 2,868 6.8 -17.0°
Reaches altitude 10° 04:52:06 10° 336° (NNW) 1,960 5.9 -16.6°
Maximum altitude 04:56:06 38° 268° (W) 931 3.9 -16.0°
Drops below altitude 10° 05:00:05 10° 200° (SSW) 1,950 5.9 -15.3°
Sets 05:02:24 0° 193° (SSW) 2,852 6.8 -14.9°
